Location: Unspecified
(0.0000°N, 0.0000°E)
Time: 07:07:33
(UTC+01:00)

ASC 2 Rocket - Visible Passes

Search period start: 22 February 2017 00:00
Search period end: 04 March 2017 00:00
Orbit: 555 x 2346 km, 24.0° (Epoch: 21 February)

Date Brightness Start Highest point End Pass type
(mag) Time Alt. Az. Time Alt. Az. Time Alt. Az.
22 Feb 6.9 03:01:33 22° SE 03:01:33 22° SE 03:07:05 10° ESE visible
22 Feb 5.9 04:56:26 33° SW 05:02:26 60° SSE 05:16:29 10° ENE visible
22 Feb 5.0 19:34:35 10° W 19:38:02 23° SSW 19:41:21 10° SSE visible
23 Feb 6.0 03:54:58 44° SSE 03:54:58 44° SSE 04:07:04 10° E visible
23 Feb 5.7 05:49:50 18° WSW 05:59:45 89° NNW 06:14:26 10° ENE visible
24 Feb 7.1 02:53:28 19° ESE 02:53:28 19° ESE 02:57:02 10° E visible
24 Feb 5.5 04:48:21 52° SW 04:51:44 71° SSE 05:05:46 10° ENE visible
24 Feb 6.0 06:44:57 10° W 06:57:20 60° NNW 07:11:35 10° NE visible
25 Feb 6.0 03:46:50 45° ESE 03:46:50 45° ESE 03:56:33 10° E visible
25 Feb 5.6 05:41:43 28° WSW 05:49:01 76° NNW 06:03:28 10° ENE visible
26 Feb 7.2 02:45:17 14° E 02:45:17 14° E 02:46:51 10° E visible
26 Feb 5.1 04:40:09 78° SW 04:41:08 85° SSE 04:54:51 10° ENE visible
26 Feb 6.1 06:35:11 10° W 06:46:43 50° NNW 07:00:33 10° NE visible
27 Feb 6.2 03:38:33 37° E 03:38:33 37° E 03:45:51 10° ENE visible
27 Feb 5.5 05:33:25 37° W 05:38:25 62° NNW 05:52:20 10° NE visible
28 Feb 5.2 04:31:44 73° NNE 04:31:44 73° NNE 04:43:47 10° ENE visible
28 Feb 6.2 06:26:36 13° W 06:36:17 42° NNW 06:49:25 10° NE visible
01 Mar 6.6 03:30:01 28° ENE 03:30:01 28° ENE 03:35:00 10° ENE visible
01 Mar 5.5 05:24:52 41° WNW 05:28:03 50° NNW 05:41:05 10° NE visible
02 Mar 5.6 04:23:05 50° NNE 04:23:05 50° NNE 04:32:35 10° NE visible
02 Mar 6.3 06:17:56 15° WNW 06:26:04 34° NNW 06:38:13 10° NE visible
03 Mar 6.9 03:21:14 19° ENE 03:21:14 19° ENE 03:24:01 10° ENE visible
03 Mar 5.6 05:16:05 38° NW 05:17:53 40° NNW 05:29:44 10° NE visible
